#timestamp,LO_Frequency,Hit,StdDev 
1663376415.8,286047000.4,N
1663376435.7,286047001.2,N
1663376455.5,286046998.2,N
1663376475.4,286046998.1,N
1663376495.2,286046999.9,N
1663376515.0,286046999.9,N
1663376515.9,286046999.9,N
1663376535.8,286047000.7,N
1663376555.6,286046998.2,N
1663376575.5,286046998.2,N
1663376595.3,286046998.6,N
1663376615.1,286046998.9,N
1663376635.9,286046996.5,N
1663376655.7,286046998.4,N
1663376675.5,286046998.1,N
1663376695.4,286046998.8,N
1663376715.2,286046999.1,N
1663376735.1,286046999.1,N
1663376736.0,286046999.1,N
1663376755.8,286046996.6,N
1663376775.6,286046999.1,N
1663376795.5,286046999.0,N
1663376815.3,286046999.1,N
1663376835.2,286046999.5,N
1663376855.9,286046996.5,N
1663376875.7,286046999.5,N
1663376895.6,286046999.4,N
1663376915.4,286046996.8,N
1663376935.2,286046997.0,N
1663376955.1,286046996.6,N
1663376956.0,286046996.6,N
1663376975.8,286046999.0,N
1663376995.7,286046999.0,N
1663377015.5,286046999.2,N
1663377035.3,286046996.9,N
1663377055.2,286046996.7,N
1663377075.0,286046997.0,N
1663377075.9,286046997.0,N
1663377095.8,286046998.0,N
1663377115.6,286046997.5,N
1663377135.4,286046995.5,Y
1663377155.3,286046999.1,P
1663377175.1,286046997.0,P
1663377195.9,286046997.7,N
1663377215.7,286046997.4,Y
1663377235.5,286046998.1,P
1663377255.4,286047001.1,P
1663377275.2,286047001.2,N
1663377295.0,286047000.3,N
1663377295.9,286047000.3,N
1663377315.8,286047000.2,N
1663377335.6,286047002.6,N
1663377355.5,286047002.1,N
1663377375.3,286047002.4,N
1663377395.1,286047000.4,N
1663377415.9,286047000.5,N
1663377435.7,286047000.0,N
1663377455.5,286047000.6,N
1663377475.4,286047000.1,N
1663377495.2,286046999.9,N
1663377515.1,286047000.8,N
1663377516.0,286047000.8,N
1663377535.8,286046998.6,N
1663377555.6,286047001.0,N
1663377575.5,286047000.9,N
1663377595.3,286046998.7,N
1663377615.2,286046998.6,N
1663377635.9,286046998.5,N
1663377655.7,286047001.1,N
1663377675.6,286047001.1,N
1663377695.4,286047001.0,N
1663377715.2,286046998.1,N
1663377735.1,286047001.2,N
1663377736.0,286047001.2,N
1663377755.8,286046998.5,N
1663377775.7,286047001.1,N
1663377795.5,286046998.7,N
1663377815.3,286046998.6,N
1663377835.2,286046998.2,N
1663377855.0,286046998.3,N
1663377855.9,286046998.3,N
1663377875.7,286047001.2,N
1663377895.6,286047001.1,N
1663377915.4,286046998.3,N
1663377935.3,286046998.7,N
1663377955.1,286046998.3,N
1663377975.9,286046999.4,N
1663377995.7,286047000.4,N
1663378015.5,286047002.7,N
1663378035.4,286047002.1,N
1663378055.2,286047002.1,N
1663378075.0,286047002.1,N
1663378075.9,286047002.1,N
1663378095.8,286047002.7,N
1663378115.6,286047000.1,N
1663378135.5,286046998.7,N
1663378155.3,286046998.7,N
1663378175.1,286047000.8,N
1663378195.9,286046999.0,N
1663378215.7,286046998.3,N
1663378235.5,286046996.6,N
1663378255.4,286046998.7,N
1663378275.2,286046998.4,N
1663378295.1,286046998.7,N
1663378296.0,286046998.7,N
1663378315.8,286046998.1,N
1663378335.6,286047000.8,N
1663378355.5,286047002.7,N
1663378375.3,286046999.9,N
1663378395.1,286047001.9,N
1663378415.9,286047001.5,N
1663378435.7,286047004.4,N
1663378455.6,286047003.5,N
1663378475.4,286047004.0,N
1663378495.2,286047004.2,N
1663378515.1,286047003.7,N
1663378516.0,286047003.7,N
1663378535.8,286047001.3,N
1663378555.7,286047003.3,N
1663378575.5,286047003.1,N
1663378595.3,286047003.8,N
1663378615.2,286047004.2,N
1663378635.9,286047003.8,N
1663378655.7,286047004.1,N
1663378675.6,286047003.7,N
1663378695.4,286047005.9,N
1663378715.3,286047003.5,N
1663378735.1,286047003.5,N
1663378736.0,286047003.5,N
1663378755.8,286047004.1,N
1663378775.7,286047001.3,N
1663378795.5,286047002.8,N
1663378815.3,286047002.5,N
1663378835.2,286047001.8,N
1663378855.0,286047002.6,N
1663378855.9,286047002.6,N
1663378875.8,286047002.6,N
1663378895.6,286047001.6,N
1663378915.4,286047002.7,N
1663378935.3,286047004.4,Y
1663378955.1,286047000.6,P
1663378975.9,286047000.5,N
1663378995.7,286046998.5,N
1663379015.5,286046998.6,N
1663379035.4,286047000.5,N
1663379055.2,286047000.2,N
1663379075.0,286046998.1,N
1663379075.9,286046998.1,N
1663379095.8,286047000.7,N
1663379115.6,286046998.6,N
1663379135.5,286046998.8,N
1663379155.3,286046999.4,N
1663379175.1,286046996.9,N
1663379195.9,286046997.6,N
1663379215.7,286046997.3,N
1663379235.5,286046998.5,N
1663379255.4,286046998.3,N
1663379275.2,286047000.2,N
1663379295.1,286047000.9,N
1663379296.0,286047000.9,N
1663379315.8,286046998.5,N
1663379335.6,286047000.8,N
1663379355.5,286046998.5,N
1663379375.3,286047001.2,N
1663379395.1,286046998.5,N
1663379415.9,286047001.0,N
1663379435.7,286047002.8,N
1663379455.6,286047000.0,N
1663379475.4,286047000.5,N
1663379495.2,286047000.8,N
1663379515.1,286047002.4,N
1663379516.0,286047002.4,N
1663379535.8,286047002.5,N
1663379555.6,286047002.4,N
1663379575.5,286047001.5,N
1663379595.3,286047003.9,N
1663379615.2,286047003.1,N
1663379635.9,286047005.9,Y
1663379655.7,286047001.4,P
1663379675.6,286047003.5,P
1663379695.4,286047004.2,P
1663379715.2,286047004.2,N
1663379735.1,286047006.0,Y
1663379736.0,286047006.0,P
1663379755.8,286047000.9,N
1663379775.7,286047000.3,N
1663379795.5,286047002.8,N
1663379815.3,286047002.4,N
1663379835.2,286047000.2,N
1663379855.0,286046998.5,N
1663379855.9,286046998.5,N
1663379875.8,286047000.0,N
1663379895.6,286046998.9,N
1663379915.4,286046998.2,N
1663379935.3,286047000.6,N
1663379955.1,286046999.9,N
1663379975.8,286047000.1,N
1663379995.7,286047000.3,N
